STARLINK-1130 (DARKSAT) (44932 NORAD) Tracking and Keplerian Element Data

This shows tracking and keplerian element data for the satellite.

Feedback or suggestion? Click here.




ElementValue
Catalog44932
NameSTARLINK-1130 (DARKSAT)
Epoch Orbit2898
Epoch Day189.91668981
Epoch Year2020
RAAN282.6805
Inclination52.9997
Eccentricity0.0001115
Argument of Perigee123.5238
Mean Anonmoly251.2872
Mean Motion15.05567343
Decay Rate0.00012106
L11 44932U 20001U 20189.91668981 .00012106 00000-0 84890-3 0 9995
L22 44932 52.9997 282.6805 0001115 123.5238 251.2872 15.05567343 28981

Live tracking and technical data element details for STARLINK-1130 (DARKSAT) (NORAD 44932). STARLINK-1130 (DARKSAT) can be tracked NOW for your location showing map with azimuth and elevation plus other details from your city location.

Track the satellite on the map from your city or location and see movement details for azimuth, elevation, latitude, longitude, range, height, and movement on the map or in text.







IsCatalogInMostPopularTable: catalog: 44932, numindb: 76
Update: records affected: 1



GetName: 44932 STARLINK-1130 (DARKSAT)

Hit Count: updated at: Fri, 10 Jul 2020 03:15:13 GMT